[Iaude] MPEC P67: 2024 PW [a=2.00,e=0.82,i=9.7,H=21.9]
    mpec at cfa.harvard.edu 
    mpec at cfa.harvard.edu
       
    Mon Aug  5 19:46:08 EDT 2024
    
    
  
M.P.E.C. 2024-P67                                Issued 2024 August 5, 23:44 UT
     The Minor Planet Electronic Circulars contain information on unusual
         minor planets, routine data on comets and natural satellites,
         and occasional editorial announcements.  They are published
    on behalf of Division F of the International Astronomical Union by the
          Minor Planet Center, Smithsonian Astrophysical Observatory,
                          Cambridge, MA 02138, U.S.A.
			  
             Prepared using the Tamkin Foundation Computer Network
                              MPC at CFA.HARVARD.EDU
            URL https://www.minorplanetcenter.net/    ISSN 1523-6714
                                    2024 PW                                     
Observations:
     K24P00W* C2024 08 01.52871523 11 16.094-43 04 27.55         19.20wXEP067F51
     K24P00W  C2024 08 01.53657423 11 21.067-43 06 06.40         19.23wXEP067F51
     K24P00W  C2024 08 01.54445223 11 26.035-43 07 44.87         18.76GVEP067F51
     K24P00W  C2024 08 01.87909 23 15 25.66 -44 18 48.5          18.8 GVEP067M28
     K24P00W  C2024 08 01.88110 23 15 27.15 -44 19 16.5          19.1 GVEP067M28
     K24P00W KC2024 08 02.55388 23 24 38.359-46 56 43.01         18.9 GVEP067R65
     K24P00W KC2024 08 02.55532 23 24 39.662-46 57 04.75         18.9 GVEP067R65
     K24P00W KC2024 08 02.55677 23 24 40.932-46 57 26.24         19.0 GVEP067R65
     K24P00W KC2024 08 02.55821 23 24 42.214-46 57 47.56         19.0 GVEP067R65
     K24P00W KB2024 08 03.20558 23 35 48.209-49 46 23.84         18.7 GXEP067X89
     K24P00W KB2024 08 03.21186 23 35 55.238-49 48 08.06         19.4 GXEP067X89
     K24P00W KB2024 08 03.21831 23 36 02.393-49 49 55.34         19.3 GXEP067X89
     K24P00W  C2024 08 03.88905 23 50 55.37 -53 00 54.8          19.0 GVEP067M28
     K24P00W  C2024 08 03.89125 23 50 58.66 -53 01 34.6          18.8 GVEP067M28
     K24P00W  C2024 08 03.89326 23 51 01.58 -53 02 09.9          18.9 GVEP067M28
     K24P00W KC2024 08 05.66118600 59 22.502-62 25 19.02         19.3 GVEP067474
     K24P00W KC2024 08 05.66272100 59 27.708-62 25 47.78         18.6 GVEP067474
     K24P00W KC2024 08 05.66425700 59 32.918-62 26 17.16         18.8 GVEP067474
     K24P00W KC2024 08 05.66579300 59 38.203-62 26 46.43         18.9 GVEP067474
     K24P00W KC2024 08 05.66733000 59 43.459-62 27 15.59         18.7 GVEP067474
Observer details:
474 Mount John Observatory, Lake Tekapo.  Observers A. C. Gilmore, P. M.
    Kilmartin.  Measurer P. M. Kilmartin.  0.6-m f/6.3 Reflector + CCD.
F51 Pan-STARRS 1, Haleakala.  Observers J. Herman, T. Lowe, P. Minguez, A.
    Schultz, I. Smith.  Measurers K. Chambers, T. de Boer, J. Fairlamb, H.
    Gao, M. Huber, C.-C. Lin, E. Magnier, Y. Ramanjooloo, R. Wainscoat, R.
    Weryk.  1.8-m Ritchey-Chretien + CCD.
M28 Lesedi Telescope-SAAO Observatory, Sutherland.  Observers N. Erasmus, S.
    Potter, C. van Gend, S. Chandra, H. Worters.  Measurers T. Ngwane, N.
    Erasmus.  1.0-m f/8 Reflector + CCD.
R65 R. F. Joyce Observatory, Christchurch.  Observer R. B. Glassey.  0.4-m
    f/8.0 Schmidt Cassegrain + CCD.
X89 Rocca Observatory, Brasilia.  Observer M. Andrade.  0.28-m f/2.0 reflector
    + CMO.
Orbital elements:
2024 PW                                                  Earth MOID = 0.0851 AU
Epoch 2024 Oct. 17.0 TT = JDT 2460600.5                 Veres                   
M   8.66028              (2000.0)            P               Q                  
n   0.34876057     Peri.  326.23239     +0.28061355     -0.94616901             
a   1.9988696      Node   107.01556     +0.91370343     +0.21186316             
e   0.8235085      Incl.    9.71180     +0.29394229     +0.24470024             
P   2.83           H   21.95          G   0.15           U   9                  
Residuals in seconds of arc
240801 F51  0.0   0.0     240802 R65  0.1-  0.0     240803 M28  0.9-  1.1+
240801 F51  0.0   0.0     240802 R65  0.1-  0.1+    240805 474  0.2+  0.3-
240801 F51  0.3-  0.5+    240803 X89 (0.1-  1.3+)   240805 474  0.0   0.2+
240801 M28  0.1+  1.0+    240803 X89  0.3+  0.4+    240805 474  0.2-  0.1+
240801 M28  0.5+  0.1+    240803 X89  0.1+  0.9-    240805 474  0.1+  0.1+
240802 R65  0.1-  0.1+    240803 M28  0.2-  0.4-    240805 474  0.1+  0.2+
240802 R65  0.1+  0.1-    240803 M28  0.1-  0.2-
Ephemeris:
2024 PW                  a,e,i = 2.00, 0.82, 10                  q = 0.3528
Date    TT    R. A. (2000) Decl.     Delta      r    Elong.  Phase     V
2024 07 06    22 03 35.1 -17 38 29   0.5808  1.4952   137.1    27.6    22.9
...
2024 07 21    22 22 16.7 -23 45 47   0.3175  1.2950   147.4    25.0    21.2
...
2024 07 29    22 45 20.8 -33 39 55   0.1909  1.1802   147.1    27.8    20.0
...
2024 08 04    23 53 39.0 -53 34 02   0.1117  1.0901   130.2    45.3    19.1
2024 08 05    00 26 49.5 -58 50 27   0.1020  1.0747   123.9    51.6    19.1
2024 08 06    01 20 38.3 -64 08 56   0.09401 1.0592   116.2    59.2    19.1
...
2024 08 12    08 24 20.5 -41 53 58   0.1023  0.9642    58.7   116.1    21.5
...
2024 08 20    09 25 54.6 -12 27 26   0.2062  0.8316    26.1   147.6    26.1
...
2024 09 04    09 50 11.3 +01 49 00   0.4738  0.5698    16.4   150.1    27.6
M. P. C. Staff               (C) Copyright 2024 MPC           M.P.E.C. 2024-P67
    
    
More information about the Iaude
mailing list